[[{"header":{"parameterUnit":"m.s-1","parameterCategory":2,"la1":30.2992,"la2":30.254,"lo1":-89.0895,"lo2":-89.0443,"dy":0.0025,"dx":0.0025,"nx":19,"ny":19,"refTime":"2026-05-22T03:00:00:Z","depth":"0","parameterNumber":2,"parameterNumberName":"U-component_of_CURRENTS"},"data":[0,0,0,-0.0717,-0.0716,-0.0677,-0.0677,-0.0635,-0.0635,0,0,0,0,0,0,0,0,0,0,0,-0.0728,-0.0727,-0.0717,-0.0716,-0.0677,-0.0677,-0.0635,-0.0635,0,0,0,0,0,0,0,0,0,0,0,-0.0728,-0.0727,-0.0727,-0.0716,-0.0678,-0.0677,-0.0635,-0.0662,0,0,0,0,0,0,0,0,0,0,-0.0699,-0.0706,-0.0727,-0.0727,-0.0716,-0.0678,-0.0677,-0.0663,-0.066,-0.0655,0,-0.0647,0,-0.0642,-0.0632,-0.0632,0,0,0,-0.0714,-0.0709,-0.0701,-0.0727,-0.0716,-0.0678,-0.0694,-0.0662,-0.0658,-0.0652,-0.0646,-0.0645,-0.0641,-0.0632,-0.0632,-0.0715,-0.0716,0,0,-0.0716,-0.0718,-0.0703,-0.0699,-0.0703,-0.0696,-0.0693,-0.0659,-0.0654,-0.0646,-0.0644,-0.0641,-0.0632,-0.0631,-0.0714,-0.0715,0,0,0,-0.0724,-0.072,-0.0712,-0.07,-0.0694,-0.0695,-0.0692,-0.0655,-0.0653,-0.0643,-0.064,-0.0631,-0.0631,-0.0713,-0.0714,-0.0683,0,0,0,-0.0725,-0.0725,-0.0713,-0.0714,-0.0694,-0.0673,-0.0688,-0.0655,-0.0651,-0.064,-0.0631,-0.0631,-0.0711,-0.0714,-0.0681,-0.0645,0,0,0,-0.073,-0.0725,-0.072,-0.0714,-0.0699,-0.0673,-0.0669,-0.0654,-0.065,-0.0632,-0.0631,-0.071,-0.0713,-0.0679,-0.0643,-0.0599,0,0,0,-0.0734,-0.0715,-0.072,-0.0702,-0.0699,-0.0699,-0.0669,-0.0658,-0.0645,-0.0631,-0.0711,-0.0714,-0.0679,-0.0643,-0.0599,-0.0432,-0.0418,0,0,-0.0712,-0.0713,-0.0704,-0.0707,-0.0694,-0.0705,-0.0714,-0.0678,-0.0695,-0.0719,-0.072,-0.0682,-0.0643,-0.0599,-0.0596,-0.0576,0,0,0,-0.0698,-0.0685,-0.0686,-0.0676,-0.0689,-0.0693,-0.0691,-0.0723,-0.075,-0.0701,-0.0749,-0.0727,-0.0698,-0.0601,-0.0587,-0.0453,-0.0727,-0.0727,-0.0727,-0.0665,-0.0667,-0.0647,-0.065,-0.066,-0.0693,-0.0714,-0.0766,-0.0773,-0.0816,-0.0751,-0.0765,-0.0667,-0.0653,-0.052,-0.0822,-0.0822,-0.0822,-0.0822,-0.0624,-0.0605,-0.0613,-0.0592,-0.0619,-0.0634,-0.0717,-0.0744,-0.0789,-0.0824,-0.0796,-0.0637,-0.0635,-0.0499,-0.0821,-0.0822,-0.0822,-0.0822,-0.0822,-0.06,-0.0585,-0.0575,-0.0553,-0.0546,-0.0584,-0.0582,-0.066,-0.0737,-0.073,-0.0592,-0.059,-0.0419,-0.0697,-0.0697,-0.0696,-0.0696,-0.0696,-0.0696,-0.0574,-0.056,-0.053,-0.0509,-0.0484,-0.0467,-0.0502,-0.0509,-0.0505,-0.0541,-0.0539,-0.0416,-0.0726,-0.0672,-0.0691,-0.0692,-0.0692,-0.0693,-0.0693,-0.0515,-0.0523,-0.0476,-0.0448,-0.0383,-0.0312,-0.0337,-0.026,-0.028,-0.0243,-0.0162,-0.0441,-0.0419,-0.043,-0.0371,-0.0311,-0.0311,-0.0311,-0.0311,-0.0475,-0.0479,-0.0405,-0.0347,-0.0281,-0.0231,-0.008,-0.0009,0.0058,0.0125,0.0067,0.0083,0.0061,0.0109,0.0086,0.0154,0.0346,0.0346,0.0347,-0.042,-0.0412,-0.0343,-0.0297,-0.0216,-0.012,0.0052,0.0234,0.0374,0.0379,0.0221,0.0193,0.0213,0.0168,0.0235,0.0192,0.0298,0,0]},{"header":{"parameterUnit":"m.s-1","parameterCategory":2,"la1":30.2992,"la2":30.254,"lo1":-89.0895,"lo2":-89.0443,"dy":0.0025,"dx":0.0025,"nx":19,"ny":19,"refTime":"2026-05-22T03:00:00:Z","depth":"0","parameterNumber":3,"parameterNumberName":"V-component_of_CURRENTS"},"data":[0,0,0,0.0066,0.0068,0.0179,0.0179,0.0305,0.0306,0,0,0,0,0,0,0,0,0,0,0,0.002,0.002,0.0066,0.0068,0.0179,0.0179,0.0305,0.0306,0,0,0,0,0,0,0,0,0,0,0,0.002,0.002,0.0021,0.0069,0.0179,0.0179,0.0304,0.0227,0,0,0,0,0,0,0,0,0,0,0.0122,0.0082,0.002,0.0021,0.0069,0.0179,0.0179,0.0223,0.0232,0.0248,0,0.0257,0,0.0284,0.0313,0.0314,0,0,0,0.0076,0.0075,0.0102,0.0021,0.007,0.0178,0.0131,0.0228,0.0237,0.0259,0.0259,0.0264,0.0286,0.0314,0.0314,0.0285,0.0284,0,0,0.007,0.0047,0.0095,0.0107,0.0088,0.0127,0.0134,0.0234,0.024,0.0259,0.0267,0.0289,0.0315,0.0315,0.0287,0.0285,0,0,0,0.0047,0.0042,0.0068,0.0102,0.0124,0.013,0.0138,0.0236,0.0243,0.0269,0.029,0.0315,0.0317,0.0288,0.0286,0.0168,0,0,0,0.0044,0.0029,0.0064,0.0053,0.0121,0.0185,0.0138,0.0236,0.0249,0.0289,0.0315,0.0318,0.0289,0.0287,0.0174,0.0135,0,0,0,0.0017,0.0027,0.0035,0.0051,0.0097,0.0184,0.0198,0.024,0.0262,0.0314,0.0318,0.029,0.0287,0.018,0.0144,0.0063,0,0,0,-0.0004,-0.0001,0.0034,0.0038,0.0096,0.0107,0.0197,0.0227,0.0262,0.0316,0.0289,0.0286,0.0181,0.0149,0.0068,0.0074,0.0049,0,0,-0.0015,-0.0003,-0.0004,0.003,0.0024,0.0093,0.0064,0.0158,0.0223,0.026,0.026,0.0172,0.0144,0.0064,-0.0082,-0.0103,0,0,0,-0.0018,-0.0023,-0.0019,-0.0011,0.001,0.0007,0.008,0.0083,0.0111,0.0232,0.015,0.0136,0.0089,0.0104,0.0086,0.0288,0.0274,0.0274,0.0274,-0.0058,-0.0053,-0.007,-0.0069,-0.0072,-0.0057,-0.0074,-0.0058,0.0022,-0.0009,0.0023,-0.014,-0.0128,-0.014,0.0066,-0.0003,-0.0003,-0.0004,-0.0004,-0.0097,-0.0104,-0.012,-0.0134,-0.015,-0.0175,-0.0206,-0.0184,-0.0229,-0.0137,-0.0177,-0.0042,-0.0166,0.0062,-0.0012,-0.0011,-0.001,-0.0009,-0.0008,-0.0125,-0.0125,-0.0142,-0.0176,-0.0218,-0.0232,-0.0291,-0.0304,-0.032,-0.0361,-0.0316,-0.0313,-0.0096,-0.037,-0.0371,-0.0371,-0.0372,-0.0372,-0.0372,-0.013,-0.0149,-0.017,-0.021,-0.0233,-0.0273,-0.0333,-0.0384,-0.0446,-0.0444,-0.0444,-0.0134,-0.0251,-0.0217,-0.0381,-0.038,-0.0379,-0.0378,-0.0377,-0.0131,-0.0142,-0.0178,-0.0202,-0.0254,-0.0288,-0.0349,-0.0459,-0.0539,-0.0592,-0.0304,-0.0495,-0.0453,-0.0437,-0.0407,-0.0612,-0.0612,-0.0612,-0.0612,-0.0123,-0.0133,-0.0172,-0.0209,-0.0256,-0.0292,-0.034,-0.0424,-0.0412,-0.034,-0.0287,-0.0168,-0.0168,-0.0099,-0.0091,-0.005,-0.0159,-0.0158,-0.0157,-0.0114,-0.0134,-0.0156,-0.02,-0.0253,-0.0282,-0.0287,-0.0308,-0.0246,-0.0116,-0.0012,-0.0031,0.0171,0.0156,0.0292,0.0287,0.0364,0,0]}],[{"header":{"parameterUnit":"m.s-1","parameterCategory":2,"la1":30.2992,"la2":30.254,"lo1":-89.0895,"lo2":-89.0443,"dy":0.0025,"dx":0.0025,"nx":19,"ny":19,"refTime":"2026-05-22T03:00:00:Z","depth":"2","parameterNumber":2,"parameterNumberName":"U-component_of_CURRENTS"},"data":[0,0,0,-0.1912,-0.1914,-0.1973,-0.1973,-0.1957,-0.1957,0,0,0,0,0,0,0,0,0,0,0,-0.1849,-0.1849,-0.1911,-0.1914,-0.1973,-0.1973,-0.1957,-0.1957,0,0,0,0,0,0,0,0,0,0,0,-0.1849,-0.1849,-0.1849,-0.1914,-0.1973,-0.1973,-0.1957,-0.1928,0,0,0,0,0,0,0,0,0,0,-0.1879,-0.1817,-0.1849,-0.1849,-0.1915,-0.1973,-0.1973,-0.1928,-0.193,-0.1913,0,-0.1913,0,-0.1965,-0.1957,-0.1957,0,0,0,-0.1885,-0.1815,-0.1872,-0.1849,-0.1916,-0.1973,-0.1938,-0.193,-0.1932,-0.1916,-0.1914,-0.1915,-0.1964,-0.1957,-0.1956,-0.1989,-0.1989,0,0,-0.1882,-0.1822,-0.187,-0.1873,-0.1918,-0.1937,-0.194,-0.1932,-0.1902,-0.1914,-0.1916,-0.1964,-0.1956,-0.1956,-0.1989,-0.1989,0,0,0,-0.1892,-0.1818,-0.1876,-0.1872,-0.1907,-0.1939,-0.1943,-0.1901,-0.1932,-0.1917,-0.1964,-0.1956,-0.1956,-0.1988,-0.1989,-0.2046,0,0,0,-0.1889,-0.1829,-0.1874,-0.1833,-0.1907,-0.1913,-0.1912,-0.1931,-0.1934,-0.1964,-0.1956,-0.1956,-0.1988,-0.1989,-0.2044,-0.2027,0,0,0,-0.1849,-0.1824,-0.1836,-0.1831,-0.188,-0.1916,-0.1943,-0.1932,-0.1964,-0.1957,-0.1956,-0.1987,-0.1988,-0.2041,-0.2025,-0.1958,0,0,0,-0.1779,-0.1833,-0.1833,-0.1912,-0.188,-0.2009,-0.1943,-0.2005,-0.201,-0.1956,-0.1988,-0.1989,-0.2041,-0.2023,-0.1958,-0.1727,-0.1709,0,0,-0.1837,-0.1836,-0.1901,-0.1907,-0.2032,-0.2,-0.2085,-0.2052,-0.201,-0.1978,-0.1979,-0.2044,-0.2025,-0.1958,-0.1784,-0.1764,0,0,0,-0.1918,-0.1933,-0.1982,-0.2035,-0.2125,-0.2124,-0.2125,-0.2111,-0.2071,-0.2023,-0.2048,-0.2033,-0.1989,-0.185,-0.1835,-0.1993,-0.1993,-0.1993,-0.1993,-0.1831,-0.1935,-0.2017,-0.2116,-0.217,-0.2212,-0.2211,-0.2169,-0.2147,-0.2132,-0.2085,-0.2076,-0.1934,-0.1918,-0.2111,-0.2112,-0.2112,-0.2112,-0.2112,-0.1879,-0.1907,-0.2007,-0.2113,-0.2144,-0.2179,-0.2224,-0.2206,-0.2154,-0.2145,-0.21,-0.1925,-0.1904,-0.2117,-0.2116,-0.2115,-0.2115,-0.2114,-0.2114,-0.1775,-0.1802,-0.1881,-0.1982,-0.2028,-0.2102,-0.2091,-0.2138,-0.2145,-0.2136,-0.1897,-0.1893,-0.2055,-0.2085,-0.2085,-0.2084,-0.2084,-0.2084,-0.2084,-0.1592,-0.1696,-0.1703,-0.1828,-0.1854,-0.1893,-0.1971,-0.1951,-0.1899,-0.1897,-0.1895,-0.2064,-0.2065,-0.205,-0.2079,-0.208,-0.208,-0.2081,-0.2081,-0.1427,-0.1446,-0.1486,-0.1512,-0.1619,-0.1616,-0.1708,-0.1608,-0.1595,-0.1516,-0.1743,-0.1753,-0.1683,-0.1693,-0.1667,-0.1594,-0.1594,-0.1594,-0.1594,-0.1238,-0.1279,-0.1292,-0.1342,-0.1401,-0.1493,-0.1302,-0.1201,-0.1249,-0.1294,-0.1308,-0.1296,-0.132,-0.1232,-0.1252,-0.1218,-0.1029,-0.1028,-0.1028,-0.1084,-0.1135,-0.1103,-0.1229,-0.133,-0.1337,-0.1108,-0.0861,-0.0892,-0.1014,-0.1302,-0.1538,-0.1558,-0.1582,-0.1477,-0.1498,-0.1456,0,0]},{"header":{"parameterUnit":"m.s-1","parameterCategory":2,"la1":30.2992,"la2":30.254,"lo1":-89.0895,"lo2":-89.0443,"dy":0.0025,"dx":0.0025,"nx":19,"ny":19,"refTime":"2026-05-22T03:00:00:Z","depth":"2","parameterNumber":3,"parameterNumberName":"V-component_of_CURRENTS"},"data":[0,0,0,-0.05,-0.0497,-0.0358,-0.0358,-0.0182,-0.0181,0,0,0,0,0,0,0,0,0,0,0,-0.056,-0.056,-0.05,-0.0497,-0.0359,-0.0358,-0.0182,-0.0181,0,0,0,0,0,0,0,0,0,0,0,-0.056,-0.056,-0.0559,-0.0497,-0.0359,-0.0358,-0.0183,-0.0285,0,0,0,0,0,0,0,0,0,0,-0.0418,-0.0489,-0.056,-0.0559,-0.0496,-0.0359,-0.0358,-0.029,-0.0278,-0.0248,0,-0.0239,0,-0.0204,-0.017,-0.0169,0,0,0,-0.0488,-0.0498,-0.0448,-0.0559,-0.0495,-0.0359,-0.0419,-0.0283,-0.0271,-0.0233,-0.0237,-0.0229,-0.0201,-0.0169,-0.0168,0.0033,0.0034,0,0,-0.0496,-0.0541,-0.0457,-0.0441,-0.0474,-0.0423,-0.0414,-0.0275,-0.0277,-0.0236,-0.0225,-0.0198,-0.0167,-0.0166,0.0032,0.0033,0,0,0,-0.0524,-0.0547,-0.05,-0.0449,-0.0422,-0.0419,-0.0409,-0.0283,-0.0264,-0.0223,-0.0196,-0.0167,-0.0165,0.0031,0.0032,-0.0044,0,0,0,-0.0528,-0.0563,-0.0504,-0.053,-0.0425,-0.0353,-0.042,-0.0274,-0.0257,-0.0197,-0.0167,-0.0163,0.003,0.0031,-0.0044,-0.0117,0,0,0,-0.0564,-0.0566,-0.0553,-0.0533,-0.0473,-0.0354,-0.0327,-0.027,-0.0241,-0.0169,-0.0163,0.0029,0.0031,-0.0044,-0.0115,-0.0176,0,0,0,-0.061,-0.0603,-0.0555,-0.0519,-0.0475,-0.0341,-0.0328,-0.0251,-0.0193,-0.0166,0.003,0.0032,-0.0044,-0.0114,-0.0174,-0.015,-0.0158,0,0,-0.0624,-0.0606,-0.0576,-0.0528,-0.0427,-0.0359,-0.0239,-0.0185,-0.0141,-0.0017,-0.0012,-0.0044,-0.0115,-0.0176,-0.0016,-0.0028,0,0,0,-0.0592,-0.0583,-0.0536,-0.0469,-0.0356,-0.0269,-0.0175,-0.0132,-0.006,-0.0095,0.0025,-0.0016,-0.0054,-0.0031,-0.0039,0.0043,0.0043,0.0042,0.0042,-0.0677,-0.0595,-0.0543,-0.0433,-0.0346,-0.0198,-0.014,-0.0058,-0.0009,0.0009,-0.0026,-0.0055,-0.0025,-0.0033,0.0058,0.0058,0.0057,0.0057,0.0057,-0.0699,-0.0661,-0.0568,-0.0511,-0.0386,-0.0296,-0.0126,-0.0098,-0.0051,-0.0,-0.0033,-0.0045,-0.0047,0.0052,0.0053,0.0054,0.0054,0.0055,0.0055,-0.0755,-0.0726,-0.0706,-0.0626,-0.0554,-0.0405,-0.0346,-0.0239,-0.0167,-0.0179,-0.0171,-0.0169,-0.0176,-0.0212,-0.0212,-0.0213,-0.0213,-0.0214,-0.0214,-0.0825,-0.0787,-0.0806,-0.0739,-0.072,-0.0654,-0.0502,-0.0446,-0.0349,-0.0267,-0.0265,-0.0147,-0.0138,-0.0188,-0.0223,-0.0221,-0.022,-0.0219,-0.0219,-0.0841,-0.0877,-0.0892,-0.0899,-0.0846,-0.0788,-0.0669,-0.0539,-0.0498,-0.0459,-0.0295,-0.0291,-0.028,-0.027,-0.032,-0.0388,-0.0388,-0.0388,-0.0388,-0.088,-0.0887,-0.0937,-0.0954,-0.0928,-0.0832,-0.0733,-0.0517,-0.0365,-0.0207,-0.0214,-0.0109,-0.0108,-0.0081,-0.0074,-0.0118,-0.0133,-0.0132,-0.0131,-0.0879,-0.0906,-0.0941,-0.0977,-0.0956,-0.0859,-0.0729,-0.0304,0.0108,-0.0114,-0.0099,-0.0385,-0.0245,-0.0237,-0.0203,-0.0191,-0.0264,0,0]}],[{"header":{"parameterUnit":"m.s-1","parameterCategory":2,"la1":30.2992,"la2":30.254,"lo1":-89.0895,"lo2":-89.0443,"dy":0.0025,"dx":0.0025,"nx":19,"ny":19,"refTime":"2026-05-22T03:00:00:Z","depth":"4","parameterNumber":2,"parameterNumberName":"U-component_of_CURRENTS"},"data":[0,0,0,-0.0967,-0.097,-0.1109,-0.111,-0.1155,-0.1155,0,0,0,0,0,0,0,0,0,0,0,-0.0912,-0.0913,-0.0967,-0.0971,-0.1109,-0.111,-0.1155,-0.1155,0,0,0,0,0,0,0,0,0,0,0,-0.0911,-0.0912,-0.0914,-0.0971,-0.1109,-0.111,-0.1155,-0.1081,0,0,0,0,0,0,0,0,0,0,-0.0962,-0.0933,-0.0912,-0.0914,-0.0972,-0.1109,-0.111,-0.1079,-0.1086,-0.1057,0,-0.1086,0,-0.1126,-0.1156,-0.1156,0,0,0,-0.0963,-0.0928,-0.0968,-0.0914,-0.0974,-0.1109,-0.1044,-0.1084,-0.1091,-0.1065,-0.1087,-0.109,-0.1127,-0.1156,-0.1156,-0.1202,-0.1202,0,0,-0.0955,-0.0931,-0.0963,-0.0973,-0.1017,-0.104,-0.1049,-0.109,-0.1095,-0.1088,-0.1092,-0.1128,-0.1156,-0.1156,-0.1201,-0.1202,0,0,0,-0.0938,-0.0925,-0.0967,-0.0969,-0.1008,-0.1044,-0.1054,-0.1094,-0.1109,-0.1093,-0.1128,-0.1156,-0.1156,-0.1201,-0.1201,-0.1246,0,0,0,-0.0933,-0.0917,-0.0963,-0.0949,-0.1009,-0.1072,-0.1057,-0.1106,-0.1113,-0.1128,-0.1156,-0.1156,-0.12,-0.1201,-0.1244,-0.1232,0,0,0,-0.0904,-0.0914,-0.0933,-0.0948,-0.1014,-0.1073,-0.1091,-0.1109,-0.1133,-0.1156,-0.1156,-0.12,-0.1201,-0.1242,-0.123,-0.124,0,0,0,-0.0869,-0.0907,-0.0932,-0.0992,-0.1012,-0.1103,-0.1091,-0.1159,-0.1185,-0.1156,-0.12,-0.1201,-0.1241,-0.1229,-0.1239,-0.1013,0,0,0,-0.0896,-0.0909,-0.0947,-0.0974,-0.1058,-0.1083,-0.1157,-0.1187,-0.1183,-0.1175,-0.1177,-0.1244,-0.123,-0.124,-0.1074,0,0,0,0,-0.0943,-0.0963,-0.0996,-0.1054,-0.1119,-0.1166,-0.1207,-0.1218,-0.1245,-0.1206,-0.1252,-0.1241,-0.1246,-0.1111,-0.1206,-0.1206,-0.1206,-0.1206,-0.1206,-0.0909,-0.0967,-0.1022,-0.1093,-0.1152,-0.1226,-0.1258,-0.1274,-0.1275,-0.1297,-0.1285,-0.1328,-0.1189,-0.1308,-0.1308,-0.1309,-0.1309,-0.1309,-0.1309,-0.0915,-0.0938,-0.1022,-0.1095,-0.1162,-0.1223,-0.129,-0.131,-0.1333,-0.1327,-0.1331,-0.1177,-0.1314,-0.1313,-0.1312,-0.1312,-0.1311,-0.1311,-0.1311,-0.0858,-0.0877,-0.0938,-0.1032,-0.112,-0.1215,-0.1256,-0.1322,-0.1351,-0.1368,-0.1218,-0.1345,-0.1332,-0.1382,-0.1382,-0.1382,-0.1382,-0.1382,-0.1382,-0.0756,-0.082,-0.0857,-0.0972,-0.1029,-0.1119,-0.1235,-0.1242,-0.1307,-0.1219,-0.1376,-0.1351,-0.1349,-0.1335,-0.1382,-0.1382,-0.1382,-0.1382,-0.1382,-0.0681,-0.0718,-0.0747,-0.0799,-0.092,-0.0983,-0.112,-0.1102,-0.1097,-0.1044,-0.1136,-0.1148,-0.11,-0.1104,-0.1079,-0.1053,-0.105,-0.1047,0,-0.0616,-0.0643,-0.0649,-0.0686,-0.074,-0.0892,-0.0841,-0.0881,-0.0935,-0.091,-0.1108,-0.1214,-0.122,-0.1171,-0.117,-0.1142,0,0,0,-0.0571,-0.0577,-0.0546,-0.0597,-0.0657,-0.0724,-0.0824,-0.078,-0.0944,-0.084,-0.0978,-0.0996,-0.1194,-0.1383,-0.1339,-0.1336,-0.1311,0,0]},{"header":{"parameterUnit":"m.s-1","parameterCategory":2,"la1":30.2992,"la2":30.254,"lo1":-89.0895,"lo2":-89.0443,"dy":0.0025,"dx":0.0025,"nx":19,"ny":19,"refTime":"2026-05-22T03:00:00:Z","depth":"4","parameterNumber":3,"parameterNumberName":"V-component_of_CURRENTS"},"data":[0,0,0,-0.0099,-0.0098,-0.0023,-0.0023,0.0055,0.0056,0,0,0,0,0,0,0,0,0,0,0,-0.0124,-0.0124,-0.0099,-0.0098,-0.0024,-0.0023,0.0055,0.0056,0,0,0,0,0,0,0,0,0,0,0,-0.0124,-0.0124,-0.0124,-0.0098,-0.0024,-0.0023,0.0055,0.0006,0,0,0,0,0,0,0,0,0,0,-0.0062,-0.0093,-0.0124,-0.0124,-0.0097,-0.0024,-0.0023,0.0004,0.0009,0.0013,0,0.0018,0,0.0032,0.006,0.006,0,0,0,-0.0085,-0.0097,-0.0075,-0.0124,-0.0097,-0.0024,-0.0053,0.0007,0.0013,0.0019,0.0019,0.0022,0.0033,0.006,0.006,0.0082,0.0082,0,0,-0.0089,-0.011,-0.0079,-0.0072,-0.0087,-0.0056,-0.0051,0.0011,0.0011,0.0019,0.0024,0.0035,0.006,0.0061,0.0083,0.0082,0,0,0,-0.0109,-0.0113,-0.0092,-0.0075,-0.0064,-0.0054,-0.0049,0.0009,0.0016,0.0025,0.0036,0.0061,0.0061,0.0083,0.0083,0.0055,0,0,0,-0.0111,-0.0126,-0.0094,-0.0105,-0.0065,-0.0026,-0.0053,0.0012,0.002,0.0035,0.0061,0.0062,0.0083,0.0083,0.0056,0.0013,0,0,0,-0.0126,-0.0127,-0.0121,-0.0107,-0.008,-0.0026,-0.0014,0.0014,0.0025,0.006,0.0062,0.0083,0.0083,0.0057,0.0016,0.0099,0,0,0,-0.0146,-0.0164,-0.0122,-0.0146,-0.0081,-0.0068,-0.0015,0.0001,0.0024,0.0061,0.0083,0.0083,0.0057,0.0018,0.0099,0.0061,0,0,0,-0.0185,-0.0169,-0.0187,-0.0148,-0.0162,-0.0077,-0.0072,-0.0018,0.0022,0.0064,0.0065,0.0055,0.0016,0.0099,0.0038,0,0,0,0,-0.0211,-0.0223,-0.022,-0.0218,-0.0185,-0.0137,-0.0076,-0.0025,0.0033,0.0033,0.0055,0.003,0.0085,0.0062,0.0081,0.0081,0.0081,0.0081,0.0081,-0.0273,-0.0269,-0.0298,-0.028,-0.0264,-0.018,-0.0123,-0.0042,-0.0006,0.0023,0.0009,0.0045,0.0017,0.0027,0.0027,0.0027,0.0027,0.0027,0.0027,-0.0339,-0.0358,-0.0352,-0.038,-0.0326,-0.0306,-0.0171,-0.0108,-0.0003,-0.0002,0.0055,0.0031,0.0024,0.0024,0.0025,0.0025,0.0025,0.0025,0.0026,-0.0373,-0.0382,-0.0407,-0.0443,-0.0437,-0.0369,-0.0305,-0.0195,-0.005,-0.0011,0.0034,0.0048,0.0055,0.0042,0.0042,0.0043,0.0043,0.0043,0.0043,-0.0389,-0.0415,-0.0463,-0.05,-0.0521,-0.0502,-0.0376,-0.0273,-0.0117,-0.002,-0.0014,0.0052,0.0051,0.0057,0.0046,0.0045,0.0045,0.0044,0.0044,-0.0423,-0.0438,-0.0502,-0.0541,-0.0592,-0.058,-0.0485,-0.0265,-0.0131,0.0006,0.0026,0.0026,0.0048,0.0048,0.0055,0.0042,0.0041,0.0041,0,-0.044,-0.0454,-0.0527,-0.0584,-0.0625,-0.0612,-0.0471,-0.0335,-0.0119,-0.0119,-0.0113,-0.0101,-0.0097,-0.0087,-0.0086,-0.0087,0,0,0,-0.0463,-0.0476,-0.0522,-0.0584,-0.0636,-0.0515,-0.0432,-0.0346,-0.0171,-0.0042,0.0029,0.0032,-0.0037,0.0053,0.0088,0.0087,0.0099,0,0]}]]